TimeCDT,TemperatureF,Dew PointF,Humidity,Sea Level PressureIn,VisibilityMPH,Wind Direction,Wind SpeedMPH,Gust SpeedMPH,PrecipitationIn,Events,Conditions,WindDirDegrees,DateUTC
12:53 AM,66.0,64.9,96,30.06,3.0,Calm,Calm,-,N/A,,Clear,0,2013-08-20 05:53:00
1:09 AM,64.4,64.4,100,30.07,2.5,Calm,Calm,-,N/A,,Clear,0,2013-08-20 06:09:00
1:37 AM,64.4,64.4,100,30.07,0.8,Calm,Calm,-,N/A,,Clear,0,2013-08-20 06:37:00
1:53 AM,64.9,64.0,97,30.06,0.2,Calm,Calm,-,N/A,Fog,Fog,0,2013-08-20 06:53:00
2:38 AM,62.6,62.6,100,30.06,0.5,Calm,Calm,-,N/A,Fog,Fog,0,2013-08-20 07:38:00
2:53 AM,64.0,63.0,96,30.06,2.5,Calm,Calm,-,N/A,,Clear,0,2013-08-20 07:53:00
3:00 AM,64.4,64.4,100,30.06,8.0,Calm,Calm,-,N/A,,Clear,0,2013-08-20 08:00:00
3:44 AM,62.6,62.6,100,30.07,1.8,Calm,Calm,-,N/A,,Partly Cloudy,0,2013-08-20 08:44:00
3:47 AM,62.6,62.6,100,30.07,0.8,Calm,Calm,-,N/A,,Mist,0,2013-08-20 08:47:00
3:53 AM,63.0,62.1,97,30.06,0.5,Calm,Calm,-,N/A,Fog,Fog,0,2013-08-20 08:53:00
4:04 AM,62.6,62.6,100,30.07,0.5,Calm,Calm,-,N/A,Fog,Fog,0,2013-08-20 09:04:00
4:11 AM,62.6,62.6,100,30.07,0.5,Calm,Calm,-,N/A,Fog,Fog,0,2013-08-20 09:11:00
4:18 AM,62.6,62.6,100,30.07,0.5,Calm,Calm,-,N/A,Fog,Fog,0,2013-08-20 09:18:00
4:22 AM,62.6,60.8,94,30.07,0.2,Calm,Calm,-,N/A,Fog,Fog,0,2013-08-20 09:22:00
4:53 AM,63.0,62.1,97,30.06,0.2,Calm,Calm,-,N/A,Fog,Fog,0,2013-08-20 09:53:00
5:53 AM,63.0,63.0,100,30.07,0.2,Calm,Calm,-,N/A,Fog,Fog,0,2013-08-20 10:53:00
6:25 AM,62.6,62.6,100,30.09,0.2,Calm,Calm,-,N/A,Fog,Fog,0,2013-08-20 11:25:00
6:53 AM,64.0,63.0,96,30.09,0.2,Calm,Calm,-,N/A,Fog,Fog,0,2013-08-20 11:53:00
7:09 AM,64.4,64.4,100,30.10,0.2,Calm,Calm,-,N/A,Fog,Fog,0,2013-08-20 12:09:00
7:27 AM,64.4,64.4,100,30.10,0.5,Calm,Calm,-,N/A,Fog,Fog,0,2013-08-20 12:27:00
7:41 AM,66.2,66.2,100,30.11,1.8,Calm,Calm,-,N/A,,Scattered Clouds,0,2013-08-20 12:41:00
7:48 AM,66.2,66.2,100,30.11,2.5,Calm,Calm,-,N/A,,Partly Cloudy,0,2013-08-20 12:48:00
7:53 AM,66.9,66.0,97,30.10,3.0,Calm,Calm,-,N/A,,Partly Cloudy,0,2013-08-20 12:53:00
8:53 AM,72.0,69.1,91,30.11,6.0,ESE,3.5,-,N/A,,Clear,110,2013-08-20 13:53:00
9:53 AM,79.0,69.1,72,30.11,10.0,ENE,3.5,-,N/A,,Clear,60,2013-08-20 14:53:00
10:53 AM,82.0,69.1,65,30.11,10.0,NNE,3.5,-,N/A,,Clear,20,2013-08-20 15:53:00
11:53 AM,84.0,66.9,56,30.11,10.0,Calm,Calm,-,N/A,,Clear,0,2013-08-20 16:53:00
12:53 PM,82.9,66.9,58,30.10,10.0,Calm,Calm,-,N/A,,Clear,0,2013-08-20 17:53:00
1:53 PM,82.9,64.9,54,30.08,10.0,Calm,Calm,-,N/A,,Partly Cloudy,0,2013-08-20 18:53:00
2:53 PM,84.0,66.0,55,30.06,10.0,Calm,Calm,-,N/A,,Clear,0,2013-08-20 19:53:00
3:53 PM,86.0,66.9,53,30.04,10.0,Calm,Calm,-,N/A,,Partly Cloudy,0,2013-08-20 20:53:00
4:53 PM,87.1,66.0,49,30.04,10.0,Calm,Calm,-,N/A,,Clear,0,2013-08-20 21:53:00
5:53 PM,84.9,66.0,53,30.03,10.0,Calm,Calm,-,N/A,,Clear,0,2013-08-20 22:53:00
6:53 PM,82.9,70.0,65,30.04,10.0,Calm,Calm,-,N/A,,Clear,0,2013-08-20 23:53:00
7:53 PM,75.9,71.1,85,30.05,10.0,Calm,Calm,-,N/A,,Clear,0,2013-08-21 00:53:00
8:53 PM,73.0,69.1,87,30.06,10.0,Calm,Calm,-,N/A,,Clear,0,2013-08-21 01:53:00
9:53 PM,70.0,68.0,93,30.07,7.0,Calm,Calm,-,N/A,,Clear,0,2013-08-21 02:53:00
10:53 PM,69.1,68.0,96,30.07,4.0,Calm,Calm,-,N/A,,Clear,0,2013-08-21 03:53:00
11:53 PM,69.1,68.0,96,30.08,4.0,Calm,Calm,-,N/A,,Clear,0,2013-08-21 04:53:00